Flag for Austria Weather past 2 weeks in Gänserndorf, Lower Austria, Austria

Now
68 °F

Passing clouds.


Feels Like: 68 °F
Forecast: 49 / 77 °F
Wind: N/A

Location: Wien / Schwechat-Flughafen

Current Time: Aug 28, 2014 at 1:52:02 PM

Latest Report: Aug 28, 2014 at 12:00 PM


Visibility: 10 mi

Pressure: 30.13 "Hg

Humidity: 54%

Dew point: 51 °F

Location of GänserndorfLocation

Historic Weather in Gänserndorf — Graph

°F

Gänserndorf temperature yesterday

Maximum temperature yesterday: 67 °F (at 11:00 AM)
Minimum temperature yesterday: 58 °F (at 7:00 AM)
Average temperature yesterday: 61 °F

Past Weeks' High & Low Weather Summary

 TemperatureHumidityPressure
High77 °F (Aug 18, 4:00 PM)99% (Aug 27, 6:00 AM)30.15 "Hg (Aug 27, 6:00 AM)
Low48 °F (Aug 28, 6:00 AM)37% (Aug 15, 2:00 PM)29.65 "Hg (Aug 13, 10:00 PM)
Average62 °F74%29.96 "Hg
* Reported Aug 13 12:00 Noon — Aug 28 12:00 Noon, Gänserndorf, Weather by CustomWeather, © 2014

Note: Actual official high and low records may vary slightly from our data, if they occured in-between our weather recording intervals... More about our weather records

Advertising

Gänserndorf weather history for previous 24 hours

 ConditionsComfort  
Time TempWeatherWind HumidityBarometerVisibility
12:00 PM
Aug 28
68 °FPassing clouds.N/A54%30.13 "Hg10 mi
11:00 AM65 °FPassing clouds.N/A62%30.14 "Hg12 mi
10:00 AM63 °FPassing clouds.N/A72%30.14 "Hg11 mi
9:00 AM60 °FSunny.N/A78%30.14 "Hg17 mi
8:00 AM57 °FSunny.N/A83%30.13 "Hg14 mi
7:00 AM49 °FPassing clouds.N/A94%30.13 "Hg7 mi
6:00 AM48 °FPassing clouds.N/A96%30.13 "Hg6 mi
5:00 AM52 °FPassing clouds.N/A86%30.11 "Hg7 mi
4:00 AM55 °FPassing clouds.3 mph86%30.10 "Hg22 mi
3:00 AM54 °FPassing clouds.N/A85%30.10 "Hg16 mi
2:00 AM56 °FPassing clouds.5 mph83%30.09 "Hg25 mi
1:00 AM58 °FPassing clouds.6 mph81%30.07 "Hg28 mi
12:00 AM58 °FPassing clouds.7 mph82%30.07 "Hg25 mi
11:00 PM
Aug 27
58 °FPassing clouds.6 mph81%30.06 "Hg25 mi
10:00 PM59 °FPassing clouds.5 mph81%30.05 "Hg25 mi
9:00 PM60 °FPassing clouds.6 mph75%30.03 "Hg17 mi
8:00 PM60 °FPassing clouds.N/A71%30.01 "Hg22 mi
7:00 PM62 °FScattered clouds.5 mph65%29.99 "Hg19 mi
6:00 PM60 °FScattered clouds.5 mph67%29.98 "Hg17 mi
5:00 PM62 °FPartly sunny.8 mph62%29.96 "Hg19 mi
4:00 PM60 °FOvercast.9 mph78%29.95 "Hg16 mi
3:00 PM59 °FRain showers. Overcast.9 mph82%29.92 "Hg6 mi
2:00 PM62 °FOvercast.7 mph74%29.90 "Hg19 mi
1:00 PM64 °FOvercast.12 mph72%29.87 "Hg19 mi
Weather by CustomWeather, © 2014

See weather overviewHow to use our weather pages